Location: ????????
(60.4333°N, 46.4710°E)
Time: 04:43:19
(UTC+00:00)

Cosmos 2322 - Pass Details

Date: 25 November 2020
Orbit: 838 x 856 km, 71.0° (Epoch: 19 January)

Event Time Altitude Azimuth Distance (km) Brightness Sun altitude
Rises 14:17:16 0° 222° (SW) 3,392 7.9 -15.2°
Reaches altitude 10° 14:19:42 10° 223° (SW) 2,463 7.0 -15.5°
Maximum altitude 14:25:23 82° 311° (NW) 862 3.7 -16.2°
Enters shadow 14:29:36 19° 39° (NE) 1,923 5.1 -16.7°
